Location: Koussan�
(15.2012°N, 12.5548°W)
Time: 17:58:52
(UTC+00:00)

FengYun 1-2 T - Pass Details

Date: 20 October 2020
Orbit: 846 x 882 km, 98.7° (Epoch: 30 November)

Event Time Altitude Azimuth Distance (km) Brightness Sun altitude
Rises 18:53:53 0° 165° (SSE) 3,459 7.3 -7.3°
Reaches altitude 10° 18:56:16 10° 164° (SSE) 2,525 6.6 -7.9°
Maximum altitude 19:01:53 83° 78° (ENE) 890 4.3 -9.2°
Drops below altitude 10° 19:07:33 10° 350° (N) 2,535 6.7 -10.6°
Sets 19:09:56 0° 349° (N) 3,473 7.4 -11.1°
